Flag for India Weather past 2 weeks in Ballia, Uttar Pradesh, India

Now
86 °F

Passing clouds.


Feels Like: 95 °F
Forecast: 79 / 96 °F
Wind: 12 mph from Southeast

Location: Patna Airport

Current Time: Sep 2, 2014 at 7:48:38 PM

Latest Report: Sep 2, 2014 at 7:20 PM


Visibility: 2 mi

Pressure: 29.59 "Hg

Humidity: 70%

Dew point: 75 °F

Location of BalliaLocation

Historic Weather in Ballia — Graph

°F

Ballia temperature yesterday

Maximum temperature yesterday: 88 °F (at 3:20 PM)
Minimum temperature yesterday: 79 °F (at 6:20 AM)
Average temperature yesterday: 84 °F

Past Weeks' High & Low Weather Summary

 TemperatureHumidityPressure
High95 °F (Aug 24, 1:20 PM)94% (Aug 18, 9:20 PM)29.77 "Hg (Aug 18, 9:20 PM)
Low79 °F (Aug 19, 5:20 AM)56% (Aug 29, 2:20 PM)29.50 "Hg (Aug 30, 4:20 PM)
Average87 °F79%29.60 "Hg
* Reported Aug 18 6:20 PM — Sep 2 6:20 PM, Ballia, Weather by CustomWeather, © 2014

Note: Actual official high and low records may vary slightly from our data, if they occured in-between our weather recording intervals... More about our weather records

Advertising

Ballia weather history for previous 24 hours

 ConditionsComfort  
Time TempWeatherWind HumidityBarometerVisibility
6:20 PM
Sep 2
88 °FBroken clouds.12 mph66%29.56 "Hg2 mi
5:20 PM88 °FScattered clouds.9 mph66%29.56 "Hg3 mi
4:20 PM91 °FScattered clouds.12 mph59%29.56 "Hg4 mi
3:20 PM91 °FScattered clouds.12 mph59%29.56 "Hg4 mi
2:20 PM90 °FScattered clouds.12 mph67%29.59 "Hg4 mi
1:20 PM91 °FBroken clouds.12 mph67%29.59 "Hg4 mi
12:20 PM88 °FBroken clouds.12 mph70%29.62 "Hg3 mi
11:20 AM88 °FBroken clouds.12 mph62%29.65 "Hg3 mi
10:20 AM88 °FBroken clouds.12 mph66%29.65 "Hg2 mi
9:20 AM84 °FBroken clouds.12 mph79%29.62 "Hg2 mi
8:20 AM82 °FBroken clouds.12 mph84%29.62 "Hg2 mi
7:20 AM82 °FScattered clouds.14 mph84%29.59 "Hg1 mi
5:20 AM81 °FMostly cloudy.12 mph89%29.59 "Hg1 mi
9:20 PM
Sep 1
82 °FPassing clouds.12 mph84%29.56 "Hg2 mi
8:20 PM84 °FPassing clouds.12 mph79%29.56 "Hg2 mi
7:20 PM84 °FPassing clouds.14 mph74%29.53 "Hg2 mi
Weather by CustomWeather, © 2014

See weather overviewHow to use our weather pages